COSMOS 894

导读

COSMOS 894是苏联(CIS)于1977年2月21日08:00发射的人造卫星,隶属于冷战时期苏联规模庞大的“宇宙”(COSMOS)卫星系列。该系列涵盖军事侦察、空间科学探测等多种任务,多数军用卫星任务细节因保密未公开。作为美苏太空争霸阶段的产物,它体现了当时苏联在航天领域的部署能力,推动了苏联太空技术积累,最终完成任务后再入大气层销毁。

基本信息
目录编号:
9846
目录名称:
COSMOS 894
国际标识:
1977-013A
轨道中心:
EARTH
卫星名称:
COSMOS 894
卫星全名:
--
卫星状态:
在轨 (已飞行18099 天)
发射日期:
1977-02-21 UTC
国别 :
俄罗斯(独联体) (CIS)
星等 :
--
轨道信息
数据来源 国际轨道数据 AOE轨道数据
星历时间 2026-09-10T23:45:08+0800
11小时前
查看轨道信息
2026-09-10T06:00:00+0800
1天前
查看轨道信息
半长轴 7362.616km 7362.609km
偏心率 0.0029144 0.0029797
轨道倾角 82.944° 82.945°
近地点辐角 333.235° 335.677°
升交点赤经 33.937° 34.483°
平近点角 37.040° 337.372°
近地点 963.021km 962.533km
远地点 1005.937km 1006.411km
周期 104.787分钟 104.787分钟
每日圈数 13.742146 13.742166
详细信息
使用方式:
暂无
2D轨道图
3D轨道图
轨道高度分析图
轨道倾角分析图
轨道综合分析图
查看轨道综合分析图
交会数据列表
事件ID 空间交会对象 最接近时刻(TCA) 交会距离 交会风险概率(CRP) 交会风险指数(CRI) 操作
CDM_260912-151200-984606-496124
2026-09-12T
15:12:24+0000
2.537 km
极远距离
1.676376E-6 低风险 0.39
CDM_260912-100400-984601-278225
2026-09-12T
10:04:40+0000
2.236 km
极远距离
5.938899E-7 极低风险 0.3
与全量物体交会距离演化趋势
与全量物体交会风险概率演化趋势